sat.trackr.live / text

‹ back to catalog

STARLINK-32144

NORAD 60269 · 2024-131Q

PAYLOAD ACTIVE UNKNOWN

§ Identity

Operator
Country
US
Launch date
2024-07-27
Launch site
AFETR
Launch vehicle
Mass (kg)
RCS (m²)

Purposes: comms

External: N2YO · Heavens-Above · Gunter

§ Orbital elements

Epoch: 2026-05-25T01:11:37.644000Z

Period
94.01 min
Inclination
53.1611°
Eccentricity
0.0001133
Mean motion
15.31702337 rev/d
Perigee alt
470.0 km
Apogee alt
471.5 km
Semi-major
6,848.9 km
B*
1.5552e-5
RAAN
57.4624°
Arg perigee
86.6282°
Mean anomaly
273.4849°
Rev number
10,346

§ Raw data

STARLINK-321441 60269U 24131Q   26145.04974125  .00000118  00000+0  15552-4 0  99952 60269  53.1611  57.4624 0001133  86.6282 273.4849 15.31702337103463

JSON: /api/v1/satellites/60269 · /tle

For live sub-satellite position, see the globe view (requires WebGL).

§ Visibility from observer

Set your observer location to see the next 7 days of passes ≥ 10°. The values pass through the URL so the page stays shareable.

No JS? Fill the form by hand. The geolocation button needs JavaScript.